Preview of NWS' New Version of Forecast
This preview is not operational and should not be used for support decisions.

Regional Weather Roundup (RWR)

Issued by National Weather Service (NWS)

                            
000
ASUS44 KMEG 231200
RWRTN 
TENNESSEE HOURLY STATE WEATHER ROUNDUP
NATIONAL WEATHER SERVICE MEMPHIS TN
700 AM CDT THU MAY 23 2019

TNZ002-004-019-021-049-052-054-088>092-231300-
WEST TENNESSEE
  
CITY           SKY/WX    TMP DP  RH WIND       PRES   REMARKS
MEMPHIS INTL   PTSUNNY   75  72  90 S9        30.13R                  
NWS MEMPHIS      N/A     74 N/A N/A MISG        N/A                   
JACKSON        FAIR      72  69  90 S6        30.15R                  
DYERSBURG      FAIR      76  71  85 SW5       30.15R                  
$$

TNZ008-025-027-028-033-062-065-066-231300-
NORTH MIDDLE TENNESSEE
  
CITY           SKY/WX    TMP DP  RH WIND       PRES   REMARKS
NASHVILLE      CLOUDY    72  59  63 S3        30.20R                  
CLARKSVILLE    FAIR      74  64  71 S6        30.16R                  
SMYRNA         FAIR      69  61  75 SE6       30.21R                  
CROSSVILLE     NOT AVBL                                               
$$

TNZ061-075-076-078-094-096-097-231300-
SOUTH MIDDLE TENNESSEE
  
CITY           SKY/WX    TMP DP  RH WIND       PRES   REMARKS
$$

TNZ017-018-042-046-047-231300-
NORTHEAST TENNESSEE
  
CITY           SKY/WX    TMP DP  RH WIND       PRES   REMARKS
TRI CITIES     PTSUNNY   69  64  84 CALM      30.26R                  
$$

TNZ012-013-036-069-073-074-231300-
CENTRAL EAST TENNESSEE
  
CITY           SKY/WX    TMP DP  RH WIND       PRES   REMARKS
KNOXVILLE      CLOUDY    73  67  81 W5        30.24R                  
OAK RIDGE      FAIR      73  64  73 CALM      30.25R                  
$$

TNZ083-085-099-231300-
SOUTHEAST TENNESSEE
  
CITY           SKY/WX    TMP DP  RH WIND       PRES   REMARKS
CHATTANOOGA    PTSUNNY   72  68  87 CALM      30.25R                  
$$

SKY/WX REPORTED AS FAIR MEANS FEW OR NO CLOUDS BELOW
12 THOUSAND FEET.